Other Surface Observations
Issued by NWS Tucson, AZ

Home | Current Version | Previous Version | Text Only | Print | Product List | Glossary On
Versions: 1 2 3 4 5 6 7 8 9 10 11 12 13 14 15 16 17 18 19 20 21 22 23 24 25 26 27 28 29 30 31 32 33 34 35 36 37 38 39 40 41 42 43 44 45 46 47 48 49 50
000
SXUS55 KTWC 271815
OSOTWC

WEATHER ROUNDUP FOR SOUTHEAST ARIZONA
NATIONAL WEATHER SERVICE TUCSON AZ
1115 AM MST TUE SEP 27 2016

AZZ504>506-514-271915-
LOCATION       SKY/WX    TMP DP  RH WIND       PRES   REMARKS
TUCSON         MOSUNNY   76  53  44 SE23G32   30.08F
DAVIS-MONTHAN  MOSUNNY   74  55  51 E15       30.07F
CHILDRENS PARK N/A      N/A N/A  75 SE7               PIMA CO DEQ
ALVERNON/22ND  N/A       67 N/A N/A E14               PIMA CO DEQ
CHERRY/GLENN   N/A       67 N/A N/A E11               PIMA CO DEQ
TANGERINE      N/A       68 N/A N/A NE11              PIMA CO DEQ
CONTL RANCH    N/A       67  56  69 SE10              PIMA CO DEQ
GRANT/1ST      N/A       67  57  70 E9                PIMA CO DEQ
CRAYCROFT/22ND N/A       66  56  71 E14               PIMA CO DEQ
GOLFLINKS/KOLB N/A       66  56  69 E12               PIMA CO DEQ
AJO/12TH       N/A       67  57  71 SE10              PIMA CO DEQ
FAIRGROUNDS    N/A       66 N/A N/A E19               PIMA CO DEQ
SAGUARO        N/A       74  57  55 E5G18             *SABINO CYN
SAN CARLOS     N/A       66  45  47 SE6G16            *SAN CARLOS
GREEN VALLEY   N/A       69  55  61 NE1               PIMA CO DEQ
HORSE CAMP CYN N/A       53  49  87 E14G54            *ARAVAIPA CYN
RINCON MTNS    N/A       46  46  99 E10G18            *NR MANNING CAMP
$$

AZZ509>511-271915-
LOCATION       SKY/WX    TMP DP  RH WIND       PRES   REMARKS
SAFFORD        CLOUDY    66  46  48 S3        30.21F
STRAY HORSE    N/A       54  47  76 E4G10             *
TRAIL CABIN    N/A       58  48  68 E8G14             *N OF GRANVILLE
BLACK HILLS    NOT AVBL
DRY LAKE       N/A       51  44  77 SE6G10            *NATANES MTNS
NOON CREEK     N/A       58  45  63 SW5G13            *PINALENO MTNS
COLUMBINE      N/A       44  44  100 CALM             *PINALENO MTNS
GUTHRIE        N/A       52  41  67 SE5G13            *SW OF GUTHRIE
$$

AZZ502-503-513-271915-
LOCATION       SKY/WX    TMP DP  RH WIND       PRES   REMARKS
NOGALES        PTSUNNY   72  54  53 VRB5      30.11F
SELLS          N/A       76  54  47 E9G14             *
SASABE         N/A       68  55  63 NE4G11            *ALTAR VLY
HOPKINS        N/A       64  49  59 SE6G15            *SANTA RITA MTNS
CARR CYN       N/A       58  54  85 NE3               *W OF HEREFORD
$$

AZZ507-508-512-271915-
LOCATION       SKY/WX    TMP DP  RH WIND       PRES   REMARKS
SIERRA VISTA   PTSUNNY   64  52  63 E9        30.21F
DOUGLAS        PTSUNNY   71  52  50 E14G21    30.18F
EMPIRE MTNS    NOT AVBL
MULESHOE RANCH N/A       56  48  75 E13G24            *PRESERVE
HEADQUARTERS   N/A       60  48  64 NE11G22           *CHIRICAHUA MTNS
$$

.............................NOTES.............................
THIS IS AN AUTOMATED COLLECTIVE WITH MINIMAL QUALITY CONTROL.
PIMA CO DEQ SITES HAVE NONSTANDARD WIND SENSOR HEIGHTS.
PIMA CO DEQ SITES DO NOT REPORT WIND GUSTS.
* INDICATES WIND SENSORS LOCATED AT 20 FEET INSTEAD OF 33 FEET.
..............................KEY..............................
SKY/WX - SKY CONDITION/WEATHER
TMP    - TEMPERATURE IN FAHRENHEIT
DP     - DEWPOINT IN FAHRENHEIT
RH     - RELATIVE HUMIDITY IN PERCENT
WIND   - DIRECTION AND SPEED IN MILES PER HOUR (MPH)
VRB    - VARIABLE WIND DIRECTION
PRES   - MEAN SEA LEVEL PRESSURE IN INCHES OF MERCURY
         F - FALLING PRESSURE   R - RISING PRESSURE
         S - STEADY PRESSURE
VSB    - VISIBILITY IN MILES
HX     - HEAT INDEX IN FAHRENHEIT
WCI    - WIND CHILL INDEX IN FAHRENHEIT
N/A    - NOT AVAILABLE
AFB    - AIR FORCE BASE
         DAVIS-MONTHAN IS DAVIS-MONTHAN AIR FORCE BASE
CYN    - CANYON
MTNS   - MOUNTAINS
NCA    - NATIONAL CONSERVATION AREA
NR     - NEAR
VLY    - VALLEY
CONTL  - CONTINENTAL
PIMA CO DEQ - PIMA COUNTY DEPT OF ENVIRONMENTAL QUALITY



USA.gov is the U.S. government's official web portal to all federal, state and local government web resources and services.